CSZ648 LOWI-ZSOF

Flight info

Callsign CSZ648
Flight time N/A
Altitude 37000
Route UNKEN DCT LANUX DCT LABUK DCT TUSIN M984 KOTEK M866 ETUBO M863 RUDKA T174 OSMUS N869 SONAT P865 RUPES R104 ABK A308 TR P982 DARNO Y746 NIXAL B208 BIPIM
Aircraft A21N/M-SDE2E3FGHILRWXY/LB2

Departure

Time N/A
Airport Innsbruck Airport (LOWI)

Arrival

Time 2026-05-08 03:36
Airport Hefei Xinqiao International Airport (ZSOF)
Time Latitude Longitude Altitude Speed Heading
2026-05-08 02:57 34.66436 113.79485 37396 ft 443 kts 172°
2026-05-08 02:58 34.60496 113.81458 37394 ft 444 kts 170°
2026-05-08 02:58 34.54664 113.84002 37396 ft 451 kts 163°
2026-05-08 02:59 34.49073 113.87479 37396 ft 458 kts 155°
2026-05-08 02:59 34.43795 113.91907 37395 ft 465 kts 148°
2026-05-08 03:00 34.38745 113.96761 37395 ft 465 kts 148°
2026-05-08 03:00 34.33671 114.01640 37394 ft 465 kts 148°
2026-05-08 03:01 34.28621 114.06465 37396 ft 465 kts 148°
2026-05-08 03:01 34.23566 114.11284 37394 ft 465 kts 148°
2026-05-08 03:02 34.18514 114.16088 37394 ft 464 kts 148°
2026-05-08 03:02 34.13427 114.20918 37395 ft 464 kts 148°
2026-05-08 03:03 34.08376 114.25706 37395 ft 465 kts 148°
2026-05-08 03:03 34.03280 114.30530 37396 ft 465 kts 148°
2026-05-08 03:04 33.98193 114.35338 37394 ft 464 kts 148°
2026-05-08 03:04 33.93109 114.40138 37396 ft 464 kts 148°
2026-05-08 03:05 33.88042 114.44907 37344 ft 465 kts 148°
2026-05-08 03:05 33.82926 114.49703 37272 ft 465 kts 148°
2026-05-08 03:06 33.77874 114.54511 37232 ft 465 kts 147°
2026-05-08 03:06 33.72827 114.59364 37211 ft 466 kts 147°
2026-05-08 03:07 33.67832 114.64275 37205 ft 469 kts 144°
2026-05-08 03:07 33.63539 114.69358 37198 ft 474 kts 138°
2026-05-08 03:08 33.59173 114.75325 37197 ft 474 kts 137°
2026-05-08 03:08 33.54881 114.81323 37199 ft 475 kts 136°
2026-05-08 03:09 33.50577 114.87359 37195 ft 475 kts 136°
2026-05-08 03:09 33.48425 114.90369 36954 ft 475 kts 136°
2026-05-08 03:09 33.46303 114.93334 36632 ft 472 kts 136°
2026-05-08 03:09 33.44167 114.96315 36156 ft 470 kts 136°
2026-05-08 03:10 33.42022 114.99300 35556 ft 470 kts 136°
2026-05-08 03:10 33.39901 115.02250 34918 ft 471 kts 136°
2026-05-08 03:10 33.37774 115.05206 34281 ft 471 kts 136°
2026-05-08 03:10 33.35651 115.08151 33619 ft 472 kts 136°
2026-05-08 03:11 33.33496 115.11137 32892 ft 474 kts 136°
2026-05-08 03:11 33.31342 115.14117 32161 ft 476 kts 136°
2026-05-08 03:11 33.29139 115.17162 31389 ft 479 kts 135°
2026-05-08 03:11 33.26970 115.20165 30681 ft 479 kts 135°
2026-05-08 03:12 33.24796 115.23174 29991 ft 479 kts 135°
2026-05-08 03:12 33.22625 115.26179 29285 ft 479 kts 135°
2026-05-08 03:12 33.20468 115.29157 28585 ft 478 kts 135°
2026-05-08 03:12 33.18308 115.32140 28112 ft 472 kts 135°
2026-05-08 03:13 33.16175 115.35085 27627 ft 467 kts 135°
2026-05-08 03:13 33.14085 115.37965 27143 ft 462 kts 135°
2026-05-08 03:13 33.11994 115.40845 26647 ft 457 kts 134°
2026-05-08 03:13 33.09933 115.43681 26180 ft 452 kts 134°
2026-05-08 03:14 33.07865 115.46523 25735 ft 447 kts 134°
2026-05-08 03:14 33.05859 115.49277 25299 ft 441 kts 134°
2026-05-08 03:14 33.03865 115.52012 24874 ft 436 kts 134°
2026-05-08 03:14 33.01891 115.54719 24450 ft 431 kts 134°
2026-05-08 03:15 32.99938 115.57395 24032 ft 426 kts 134°
2026-05-08 03:15 32.98011 115.60034 23609 ft 421 kts 133°
2026-05-08 03:15 32.96104 115.62644 23197 ft 416 kts 133°
2026-05-08 03:15 32.94215 115.65229 22770 ft 412 kts 134°
2026-05-08 03:16 32.92357 115.67780 22325 ft 408 kts 134°
2026-05-08 03:16 32.90515 115.70306 21869 ft 405 kts 134°
2026-05-08 03:16 32.89202 115.72100 21539 ft 403 kts 134°
2026-05-08 03:16 32.87992 115.73748 21231 ft 401 kts 133°
2026-05-08 03:17 32.86197 115.76257 20754 ft 398 kts 132°
2026-05-08 03:17 32.84436 115.78754 20289 ft 395 kts 132°
2026-05-08 03:17 32.82679 115.81254 19821 ft 392 kts 132°
2026-05-08 03:17 32.80940 115.83725 19359 ft 389 kts 132°
2026-05-08 03:18 32.79212 115.86179 18895 ft 386 kts 132°
2026-05-08 03:18 32.77506 115.88599 18435 ft 383 kts 132°
2026-05-08 03:18 32.75798 115.91017 17972 ft 380 kts 132°
2026-05-08 03:18 32.74118 115.93397 17515 ft 378 kts 131°
2026-05-08 03:19 32.72443 115.95767 17058 ft 375 kts 131°
2026-05-08 03:19 32.70774 115.98126 16600 ft 372 kts 131°
2026-05-08 03:19 32.69112 116.00474 16141 ft 370 kts 131°
2026-05-08 03:19 32.67455 116.02815 15683 ft 367 kts 131°
2026-05-08 03:20 32.65830 116.05109 15231 ft 365 kts 131°
2026-05-08 03:20 32.64193 116.07420 14774 ft 362 kts 131°
2026-05-08 03:20 32.62603 116.09662 14328 ft 359 kts 131°
2026-05-08 03:20 32.60998 116.11924 13877 ft 357 kts 131°
2026-05-08 03:21 32.59400 116.14175 13426 ft 355 kts 131°
2026-05-08 03:21 32.57825 116.16389 12990 ft 352 kts 130°
2026-05-08 03:21 32.56255 116.18600 12573 ft 349 kts 130°
2026-05-08 03:21 32.54706 116.20826 12135 ft 346 kts 129°
2026-05-08 03:22 32.53193 116.23022 11713 ft 344 kts 129°
2026-05-08 03:22 32.51699 116.25195 11258 ft 342 kts 129°
2026-05-08 03:22 32.50190 116.27387 10721 ft 343 kts 129°
2026-05-08 03:22 32.48683 116.29573 10361 ft 336 kts 129°
2026-05-08 03:23 32.47238 116.31668 10252 ft 322 kts 130°
2026-05-08 03:23 32.45870 116.33649 10150 ft 308 kts 130°
2026-05-08 03:23 32.44541 116.35572 10061 ft 294 kts 130°
2026-05-08 03:23 32.43267 116.37415 9851 ft 287 kts 130°
2026-05-08 03:24 32.42006 116.39236 9496 ft 285 kts 130°
2026-05-08 03:24 32.40765 116.41029 9162 ft 282 kts 130°
2026-05-08 03:24 32.39520 116.42825 8835 ft 279 kts 130°
2026-05-08 03:24 32.38303 116.44582 8518 ft 276 kts 130°
2026-05-08 03:25 32.37101 116.46314 8206 ft 273 kts 130°
2026-05-08 03:25 32.35887 116.48065 7890 ft 270 kts 130°
2026-05-08 03:25 32.34700 116.49774 7583 ft 267 kts 130°
2026-05-08 03:25 32.33537 116.51449 7281 ft 264 kts 130°
2026-05-08 03:26 32.32379 116.53116 6980 ft 262 kts 130°
2026-05-08 03:26 32.31220 116.54784 6679 ft 259 kts 130°
2026-05-08 03:26 32.30084 116.56419 6379 ft 257 kts 130°
2026-05-08 03:26 32.28959 116.58037 6080 ft 255 kts 130°
2026-05-08 03:27 32.27838 116.59647 5786 ft 253 kts 130°
2026-05-08 03:27 32.26725 116.61245 5494 ft 251 kts 130°
2026-05-08 03:27 32.25629 116.62819 5388 ft 239 kts 130°
2026-05-08 03:27 32.24607 116.64287 5350 ft 225 kts 130°
2026-05-08 03:28 32.23642 116.65674 5306 ft 214 kts 130°
2026-05-08 03:28 32.22707 116.67035 5196 ft 215 kts 129°
2026-05-08 03:28 32.21771 116.68426 4919 ft 213 kts 129°
2026-05-08 03:28 32.20857 116.69787 4668 ft 211 kts 129°
2026-05-08 03:29 32.19946 116.71140 4423 ft 210 kts 129°
2026-05-08 03:29 32.19078 116.72523 4169 ft 210 kts 120°
2026-05-08 03:29 32.18532 116.74106 3921 ft 209 kts 106°
2026-05-08 03:29 32.18191 116.75776 3681 ft 209 kts 103°
2026-05-08 03:30 32.17578 116.79099 3199 ft 206 kts 103°
2026-05-08 03:30 32.16953 116.82382 2741 ft 203 kts 104°
2026-05-08 03:31 32.16215 116.85484 2637 ft 184 kts 124°
2026-05-08 03:31 32.14241 116.87254 2308 ft 180 kts 149°
2026-05-08 03:32 32.13157 116.87968 2042 ft 177 kts 150°
2026-05-08 03:32 32.12084 116.88674 1984 ft 177 kts 149°
2026-05-08 03:32 32.11011 116.89393 1977 ft 178 kts 149°
2026-05-08 03:32 32.09944 116.90114 1973 ft 176 kts 149°
2026-05-08 03:33 32.08942 116.90794 1964 ft 152 kts 148°
2026-05-08 03:33 32.08049 116.91402 1903 ft 142 kts 148°
2026-05-08 03:33 32.07209 116.91973 1791 ft 137 kts 148°
2026-05-08 03:33 32.06388 116.92529 1630 ft 136 kts 148°
2026-05-08 03:34 32.05561 116.93089 1442 ft 135 kts 147°
2026-05-08 03:34 32.04760 116.93642 1250 ft 135 kts 147°
2026-05-08 03:34 32.03941 116.94199 1067 ft 135 kts 147°
2026-05-08 03:34 32.03128 116.94750 883 ft 134 kts 147°
2026-05-08 03:35 32.02325 116.95294 707 ft 134 kts 147°
2026-05-08 03:35 32.01509 116.95848 538 ft 134 kts 147°
2026-05-08 03:35 32.00707 116.96389 367 ft 134 kts 147°
2026-05-08 03:35 31.99902 116.96938 218 ft 128 kts 148°
2026-05-08 03:36 31.99266 116.97373 217 ft 80 kts 152°
2026-05-08 03:36 31.98929 116.97598 217 ft 30 kts 150°
2026-05-08 03:36 31.98751 116.97694 217 ft 27 kts 166°
2026-05-08 03:36 31.98569 116.97714 217 ft 16 kts 181°
2026-05-08 03:37 31.98520 116.97657 217 ft 13 kts 295°
2026-05-08 03:37 31.98624 116.97572 217 ft 23 kts 330°
2026-05-08 03:37 31.98792 116.97458 217 ft 31 kts 330°
2026-05-08 03:37 31.98984 116.97329 217 ft 31 kts 330°
2026-05-08 03:38 31.99141 116.97163 217 ft 30 kts 290°
2026-05-08 03:38 31.99133 116.96925 217 ft 28 kts 262°
2026-05-08 03:38 31.99142 116.96704 217 ft 26 kts 275°
2026-05-08 03:38 31.99141 116.96499 217 ft 24 kts 265°
2026-05-08 03:39 31.99108 116.96314 217 ft 22 kts 245°
2026-05-08 03:39 31.99010 116.96182 217 ft 21 kts 217°
2026-05-08 03:39 31.98892 116.96089 217 ft 19 kts 209°
2026-05-08 03:39 31.98794 116.96029 217 ft 6 kts 201°
2026-05-08 03:40 31.98760 116.96049 217 ft 6 kts 122°
2026-05-08 03:40 31.98741 116.96095 217 ft 3 kts 113°
2026-05-08 03:40 31.98737 116.96104 217 ft 0 kts 113°